Wind_Speed
37 38 38 38 38 39 39 39 40 39 39 40 40 41 41 41 42 42 42 42 43 43 44 45 45 44 44 45 45 45 45 44 43 43 43 42 42 42 43 43 43 43 43 42
37 38 38 38 39 39 39 40 40 40 40 41 41 41 41 41 41 42 42 42 43 44 45 46 46 46 46 46 46 46 46 45 45 44 44 44 44 43 43 44 44 43 43 43
38 38 38 39 39 40 40 40 41 41 41 42 43 43 41 41 41 41 42 42 43 44 45 46 47 47 47 46 46 46 47 46 46 46 45 46 46 45 45 45 44 43 43 43
38 38 38 38 39 39 40 40 41 41 42 42 42 44 42 42 41 41 41 42 43 44 45 46 47 47 47 47 46 46 47 48 47 47 46 47 47 47 46 46 45 44 44 44
38 38 38 38 39 39 40 40 41 41 42 43 42 44 43 42 42 41 41 42 43 43 44 45 46 47 47 47 47 47 48 49 49 49 48 48 47 48 47 46 46 44 44 45
38 38 38 38 38 39 40 40 40 41 42 43 41 43 44 43 42 41 41 42 42 43 44 44 45 46 47 47 47 47 48 49 49 49 49 48 48 48 47 47 47 46 45 46
38 37 37 37 38 38 39 39 40 41 42 43 41 43 44 43 42 42 41 42 43 43 43 43 44 44 46 46 47 47 48 48 49 49 49 49 48 48 48 48 48 48 47 46
37 37 36 36 37 37 37 38 39 41 42 42 41 43 43 42 42 41 41 42 43 43 43 44 44 45 45 46 47 47 47 48 49 49 49 49 49 49 49 49 49 49 47 47
35 36 35 35 36 36 37 37 37 39 41 42 42 43 42 41 41 41 42 42 42 43 43 44 44 44 45 45 46 47 47 48 49 49 50 50 50 50 50 50 50 49 48 47
35 35 34 35 36 36 36 36 36 37 39 41 41 41 41 40 41 42 42 43 42 43 43 44 44 44 45 46 47 47 47 48 49 49 50 50 50 50 50 51 51 51 50 49
34 35 35 35 35 36 36 35 36 37 38 39 40 40 39 39 41 41 42 42 42 43 44 44 44 45 44 45 46 47 47 47 48 49 49 50 50 50 50 51 52 52 52 51
34 35 35 35 35 34 35 35 35 37 37 38 40 40 39 39 40 41 41 42 42 43 43 44 44 44 44 44 45 45 46 47 47 48 49 49 49 49 50 50 51 51 52 52
34 35 35 35 35 35 35 35 35 36 38 38 39 39 39 40 41 41 41 41 42 42 42 43 43 43 43 44 44 44 45 46 47 47 47 48 48 49 49 49 50 51 51 51
35 35 35 35 35 35 35 35 35 36 37 38 38 38 38 39 40 40 41 41 41 41 41 42 42 42 42 43 43 43 44 45 45 45 46 47 47 47 48 48 49 51 51 51
34 35 35 35 35 35 35 35 35 35 36 38 38 38 38 39 39 39 40 40 40 40 40 40 41 41 41 41 42 42 43 43 44 45 45 46 46 46 47 47 48 50 51 51
34 34 34 33 33 34 34 33 34 34 34 36 37 37 38 39 39 38 38 39 38 39 39 39 39 39 39 40 40 40 41 42 43 44 44 45 45 46 47 47 48 48 49 50
33 33 32 31 31 33 32 31 32 33 33 34 35 35 36 37 37 37 37 37 37 37 37 38 37 38 38 38 38 38 39 40 41 41 42 43 44 44 46 47 48 48 48 49
31 31 31 31 31 31 30 31 32 32 32 33 33 33 34 36 36 36 36 36 36 35 36 37 37 37 36 36 36 37 37 38 39 39 39 40 42 43 43 44 45 46 47 48
31 31 31 31 31 30 29 29 30 30 30 31 31 32 33 34 35 35 35 35 36 35 36 36 36 35 34 34 35 35 36 36 36 37 36 37 38 40 41 42 43 43 44 46
29 29 30 30 31 31 30 30 30 31 30 30 31 32 33 34 34 33 34 35 35 35 34 34 33 34 33 32 32 32 33 33 33 34 34 34 35 36 38 39 40 41 42 43
27 28 29 29 30 30 30 31 30 31 31 31 31 32 33 33 34 33 33 34 34 34 33 33 33 32 32 31 32 32 32 32 32 32 33 33 33 33 34 36 37 38 39 41
26 27 28 28 29 29 30 31 31 31 31 31 32 32 33 33 33 33 33 33 33 33 32 32 32 31 30 30 31 31 31 31 31 31 31 31 31 31 32 33 34 35 36 38
26 26 27 28 28 29 30 30 31 31 31 31 32 32 32 31 32 32 32 32 33 33 33 32 31 31 30 30 29 29 29 29 29 30 30 31 31 32 32 32 33 33 34 36
27 26 27 27 28 29 29 30 31 31 31 30 31 31 31 32 32 32 32 32 32 32 32 31 30 29 29 30 30 29 28 29 29 30 30 29 30 32 32 32 32 33 34 35
28 28 28 28 28 29 29 31 31 31 31 30 30 30 32 32 33 33 33 32 32 31 30 30 29 28 28 28 29 30 30 30 30 30 31 32 32 32 32 33 33 32 32 33
27 28 29 30 30 31 30 31 31 31 31 30 30 31 32 32 33 33 33 32 31 30 29 28 28 27 27 27 28 29 30 30 31 31 32 33 33 32 32 33 33 34 33 33
Wind_Direction
271 271 271 272 272 272 272 272 273 272 271 270 269 269 268 268 268 268 267 266 266 266 265 265 265 265 264 263 262 261 260 259 259 260 261 260 260 260 260 260 260 261 261 262
274 273 273 272 271 271 272 272 272 272 271 271 270 269 269 268 268 268 267 267 267 267 266 265 265 264 265 264 262 260 259 258 258 259 260 260 260 259 260 260 260 261 261 261
274 274 273 271 271 271 271 272 273 272 271 271 271 270 269 268 268 269 269 268 268 267 266 265 265 264 264 263 261 259 258 258 258 259 260 260 260 260 260 261 261 260 259 258
274 273 272 270 270 271 271 272 273 272 271 271 272 272 269 269 269 270 271 271 270 269 268 266 265 263 262 262 261 259 258 257 258 259 260 261 261 260 260 260 260 258 258 257
275 272 271 270 270 271 271 272 272 272 272 272 272 273 272 271 271 272 273 273 272 271 270 268 266 264 262 261 261 259 258 258 258 259 260 260 261 261 260 260 259 258 257 257
275 273 272 271 271 271 272 272 272 272 272 272 273 274 275 274 274 274 274 274 273 272 272 269 267 265 263 262 261 259 259 258 259 259 260 261 260 260 259 259 258 257 256 256
275 273 273 273 272 271 273 273 274 274 273 273 274 275 276 276 276 276 276 276 275 274 272 270 267 265 263 262 261 259 259 259 259 259 259 260 259 258 258 258 257 257 256 255
277 275 274 274 273 273 273 273 274 275 275 275 275 276 278 278 279 279 278 278 278 276 273 271 269 268 266 264 262 261 260 259 259 258 258 258 259 258 258 257 256 256 255 255
278 276 275 274 273 273 274 273 274 275 275 276 277 278 278 279 280 280 279 279 279 277 275 272 270 269 267 266 264 263 261 260 259 258 257 258 258 258 258 257 256 255 254 254
278 277 276 275 273 273 274 275 275 274 276 277 278 279 279 280 281 281 281 281 280 279 277 273 271 270 269 268 266 264 262 261 260 260 259 258 259 258 257 256 256 255 254 254
278 277 277 276 275 275 275 275 275 274 275 277 279 280 281 282 282 282 283 283 281 280 278 275 272 271 271 270 267 265 264 262 261 260 260 259 259 259 257 256 256 256 255 254
278 277 276 275 275 275 275 275 275 275 275 276 278 280 281 282 283 283 284 283 282 281 279 277 275 274 272 271 269 266 264 263 262 262 261 260 260 259 258 256 256 256 255 255
277 276 277 276 276 275 275 275 276 276 275 276 278 280 282 283 284 285 285 284 283 282 281 279 277 276 273 271 269 267 265 263 263 262 261 260 260 259 258 257 257 256 255 254
276 275 276 276 277 277 276 276 276 276 277 278 279 281 281 283 285 286 286 286 285 284 283 281 279 277 276 274 271 269 266 264 263 263 261 260 260 260 258 256 256 255 255 254
277 277 276 275 274 274 276 277 278 277 277 278 280 281 282 284 286 287 288 288 287 286 284 282 281 279 278 276 273 270 267 265 264 263 261 261 260 259 259 257 255 254 253 253
279 278 277 275 274 274 275 277 278 278 278 278 279 281 283 285 287 288 289 290 289 286 285 283 282 280 279 277 274 272 269 267 266 264 262 262 261 260 258 257 255 254 253 252
280 278 278 277 275 275 276 278 278 279 280 281 281 283 284 287 288 289 290 289 289 287 286 285 282 281 280 278 276 274 271 268 266 264 262 262 261 260 259 258 256 255 254 253
280 279 279 279 277 277 280 280 280 280 282 283 284 285 287 289 290 291 291 289 290 290 288 286 285 282 281 278 275 274 272 269 265 263 263 263 261 260 259 257 256 256 254 253
279 279 280 281 281 281 281 282 283 283 284 285 286 286 288 290 291 292 291 291 292 291 290 288 287 284 282 279 275 273 271 269 266 262 263 262 261 260 258 257 257 257 255 254
280 281 280 281 282 282 283 284 284 285 286 286 287 288 290 291 291 292 291 291 291 292 291 289 288 286 282 279 276 273 271 268 266 263 264 263 262 261 259 258 259 258 257 255
281 280 280 280 280 281 283 285 285 286 288 288 289 290 291 291 292 292 292 292 292 292 292 289 287 287 283 279 275 273 270 268 266 265 265 262 262 263 262 260 260 259 258 256
282 282 281 280 279 281 283 284 285 287 289 290 290 291 291 292 293 294 294 294 293 293 292 290 287 285 283 279 275 273 270 267 265 264 264 263 263 263 263 261 261 260 259 257
279 281 282 281 281 282 284 286 287 288 290 290 291 291 291 292 294 295 294 294 294 294 292 290 288 284 282 279 275 273 269 266 265 264 264 264 264 263 263 263 263 261 259 258
279 280 281 282 283 283 284 286 287 288 289 290 291 292 293 293 294 295 295 293 294 294 293 291 289 285 281 278 275 273 270 267 266 265 265 264 263 263 262 264 265 262 260 260
281 282 282 282 283 283 284 286 287 288 289 290 292 292 293 294 294 295 296 295 293 293 293 291 289 286 282 279 277 274 272 270 269 268 268 266 266 266 266 264 264 264 263 263
281 281 282 284 285 286 286 287 286 287 288 289 291 293 293 294 294 295 296 296 294 292 292 291 289 286 282 280 278 275 273 271 270 269 268 267 267 267 267 266 266 265 264 264
Height
5698 5699 5698 5698 5697 5697 5696 5695 5695 5695 5694 5694 5694 5694 5695 5695 5695 5695 5695 5696 5697 5697 5698 5698 5699 5701 5702 5703 5704 5705 5706 5708 5709 5711 5712 5713 5715 5716 5718 5719 5720 5721 5721 5722
5688 5688 5688 5687 5686 5686 5685 5684 5684 5684 5683 5683 5683 5683 5684 5684 5684 5683 5684 5684 5684 5685 5685 5686 5687 5688 5689 5690 5692 5693 5694 5696 5698 5699 5701 5702 5703 5705 5707 5708 5708 5709 5710 5711
5677 5678 5677 5676 5675 5675 5674 5674 5674 5673 5673 5672 5671 5672 5673 5673 5673 5672 5672 5672 5672 5672 5673 5673 5674 5675 5676 5677 5678 5680 5682 5684 5685 5687 5689 5690 5691 5693 5695 5696 5697 5698 5699 5700
5666 5666 5666 5665 5665 5664 5664 5663 5662 5662 5661 5661 5661 5659 5662 5662 5662 5661 5661 5661 5660 5660 5660 5660 5660 5661 5662 5664 5665 5667 5669 5671 5673 5674 5676 5677 5679 5681 5682 5684 5685 5686 5687 5689
5656 5656 5655 5655 5655 5654 5653 5653 5652 5651 5650 5649 5650 5648 5650 5650 5650 5651 5650 5649 5648 5647 5647 5647 5647 5647 5648 5650 5651 5653 5655 5657 5659 5661 5663 5664 5666 5668 5669 5671 5673 5674 5676 5677
5645 5645 5644 5644 5644 5644 5642 5642 5641 5640 5639 5638 5640 5638 5637 5638 5639 5639 5638 5637 5636 5635 5634 5634 5633 5634 5635 5636 5637 5639 5641 5643 5645 5647 5649 5650 5652 5654 5656 5658 5660 5662 5664 5666
5636 5635 5635 5634 5634 5634 5633 5632 5631 5629 5627 5628 5629 5626 5627 5628 5627 5627 5626 5625 5624 5623 5621 5621 5620 5620 5621 5622 5623 5625 5627 5629 5631 5633 5635 5637 5638 5640 5643 5645 5647 5649 5652 5654
5625 5625 5626 5625 5624 5624 5623 5622 5622 5619 5618 5617 5617 5616 5617 5617 5616 5615 5614 5613 5611 5610 5608 5607 5607 5608 5608 5609 5610 5611 5613 5615 5617 5619 5621 5623 5624 5627 5629 5631 5634 5636 5639 5641
5615 5615 5616 5615 5614 5614 5613 5612 5612 5610 5607 5607 5607 5606 5606 5606 5605 5603 5602 5600 5599 5597 5596 5594 5594 5595 5595 5595 5596 5597 5599 5601 5603 5605 5607 5609 5611 5613 5615 5617 5620 5622 5625 5628
5606 5605 5606 5605 5605 5604 5604 5603 5602 5599 5597 5596 5596 5596 5596 5595 5594 5593 5591 5589 5587 5585 5583 5582 5581 5581 5582 5582 5582 5583 5585 5587 5588 5590 5592 5594 5596 5598 5601 5603 5606 5608 5611 5614
5596 5596 5596 5596 5596 5595 5595 5594 5592 5590 5589 5587 5586 5589 5587 5585 5582 5581 5579 5577 5575 5573 5571 5570 5569 5568 5568 5568 5568 5569 5571 5572 5574 5576 5577 5579 5581 5583 5585 5588 5591 5594 5596 5599
5587 5586 5586 5586 5586 5585 5585 5584 5583 5582 5581 5579 5577 5580 5577 5575 5572 5570 5568 5566 5563 5561 5559 5557 5556 5555 5555 5555 5554 5555 5556 5558 5559 5561 5562 5565 5567 5569 5571 5574 5576 5579 5582 5585
5578 5577 5577 5576 5578 5577 5576 5575 5574 5572 5571 5570 5568 5571 5567 5565 5562 5560 5557 5555 5552 5550 5548 5546 5544 5543 5542 5542 5541 5541 5542 5543 5545 5546 5548 5550 5552 5554 5557 5559 5562 5564 5567 5570
5568 5568 5569 5569 5567 5566 5566 5566 5565 5563 5561 5560 5560 5560 5559 5555 5552 5549 5547 5544 5541 5539 5536 5534 5532 5531 5530 5529 5528 5528 5529 5529 5531 5532 5533 5536 5538 5540 5542 5545 5547 5550 5553 5556
5559 5559 5559 5558 5558 5557 5556 5556 5555 5554 5553 5552 5551 5549 5548 5545 5542 5539 5536 5533 5531 5528 5526 5523 5521 5520 5518 5517 5516 5515 5515 5516 5517 5518 5520 5522 5524 5526 5528 5530 5532 5535 5538 5542
5550 5550 5549 5549 5549 5547 5547 5547 5546 5545 5544 5543 5541 5540 5538 5535 5532 5530 5527 5523 5521 5518 5515 5513 5511 5509 5507 5506 5504 5503 5503 5503 5504 5505 5506 5508 5510 5512 5514 5516 5518 5521 5524 5527
5542 5541 5540 5540 5539 5538 5539 5540 5538 5536 5535 5534 5532 5532 5529 5526 5523 5520 5517 5514 5510 5508 5505 5503 5501 5499 5497 5495 5494 5493 5492 5491 5491 5492 5494 5495 5496 5498 5500 5502 5504 5507 5510 5514
5534 5533 5531 5531 5531 5530 5534 5531 5529 5528 5527 5525 5523 5521 5519 5516 5513 5510 5507 5504 5501 5498 5496 5493 5491 5488 5487 5485 5483 5482 5481 5481 5481 5481 5482 5482 5484 5485 5487 5488 5491 5494 5497 5500
5527 5525 5524 5523 5521 5522 5524 5523 5520 5518 5518 5516 5514 5512 5510 5507 5504 5502 5498 5495 5492 5489 5486 5484 5481 5478 5477 5475 5474 5473 5472 5471 5471 5471 5471 5472 5472 5473 5475 5476 5479 5481 5484 5487
5519 5518 5517 5515 5514 5514 5516 5514 5511 5511 5509 5508 5505 5503 5501 5498 5496 5494 5490 5486 5483 5480 5477 5474 5472 5469 5467 5466 5464 5463 5462 5461 5462 5462 5462 5461 5462 5462 5463 5465 5467 5470 5472 5475
5511 5510 5509 5508 5506 5506 5507 5505 5504 5503 5502 5499 5497 5494 5492 5489 5487 5484 5480 5477 5474 5471 5468 5465 5463 5460 5458 5456 5455 5454 5453 5453 5453 5452 5452 5452 5453 5453 5454 5455 5457 5459 5461 5463
5504 5503 5502 5501 5499 5502 5498 5497 5496 5495 5492 5490 5488 5485 5483 5480 5477 5474 5471 5468 5465 5462 5459 5456 5454 5451 5449 5448 5447 5446 5445 5444 5444 5444 5444 5444 5444 5445 5445 5446 5448 5449 5451 5453
5496 5496 5495 5495 5495 5492 5490 5489 5487 5486 5484 5482 5479 5477 5474 5471 5468 5466 5463 5459 5456 5453 5451 5448 5445 5443 5441 5439 5438 5437 5437 5436 5436 5436 5436 5436 5436 5437 5437 5438 5439 5440 5441 5443
5489 5488 5487 5486 5486 5484 5482 5480 5479 5477 5475 5473 5471 5468 5466 5463 5460 5457 5454 5451 5448 5445 5442 5440 5437 5435 5433 5431 5430 5429 5429 5428 5428 5428 5428 5428 5428 5429 5429 5429 5429 5430 5432 5433
5482 5480 5479 5478 5477 5476 5474 5473 5471 5469 5467 5464 5462 5459 5457 5454 5451 5448 5445 5442 5439 5437 5434 5431 5429 5427 5425 5423 5422 5421 5420 5420 5420 5420 5420 5420 5420 5420 5420 5421 5421 5421 5422 5422
5475 5473 5472 5471 5469 5467 5466 5464 5462 5460 5458 5456 5454 5451 5448 5445 5442 5439 5436 5433 5431 5428 5426 5423 5421 5419 5417 5416 5414 5413 5412 5412 5412 5412 5412 5412 5412 5412 5412 5412 5412 5412 5412 5413